JBU1532 SKCG-KJFK

Flight info

Callsign JBU1532
Flight time 4h 32m
Altitude 34000
Route N0468F340 VARO2A VARON UM779 HIMES DCT ALTIB UM779 ZEUSS/N0467F330 Y329 ZFP/N0463F350 Y319 JAZZI DCT SAGGY DCT CHIEZ Q161 KALDA Q108 SIE CAMRN5
Aircraft A320/M-SDE3FGHIRWY/LB1

Departure

Time 2026-05-05 16:41
Airport Rafael Nuñez International Airport (SKCG)

Arrival

Time 2026-05-05 21:13
Airport John F. Kennedy International Airport (KJFK)
Time Latitude Longitude Altitude Speed Heading
2026-05-05 16:11 10.44685 -75.51543 21 ft 0 kts 271°
2026-05-05 16:29 10.44685 -75.51542 21 ft 1 kts 271°
2026-05-05 16:29 10.44685 -75.51529 21 ft 2 kts 271°
2026-05-05 16:29 10.44682 -75.51510 21 ft 3 kts 286°
2026-05-05 16:29 10.44674 -75.51491 21 ft 3 kts 304°
2026-05-05 16:30 10.44660 -75.51476 21 ft 3 kts 322°
2026-05-05 16:30 10.44642 -75.51465 21 ft 3 kts 337°
2026-05-05 16:30 10.44623 -75.51460 21 ft 3 kts 351°
2026-05-05 16:30 10.44602 -75.51458 21 ft 3 kts
2026-05-05 16:31 10.44596 -75.51459 21 ft 0 kts
2026-05-05 16:32 10.44597 -75.51459 21 ft 1 kts
2026-05-05 16:32 10.44605 -75.51456 21 ft 3 kts 26°
2026-05-05 16:33 10.44610 -75.51427 21 ft 6 kts 105°
2026-05-05 16:33 10.44601 -75.51376 21 ft 7 kts 94°
2026-05-05 16:33 10.44597 -75.51325 21 ft 7 kts 95°
2026-05-05 16:33 10.44573 -75.51284 21 ft 9 kts 166°
2026-05-05 16:34 10.44504 -75.51284 21 ft 11 kts 183°
2026-05-05 16:34 10.44417 -75.51290 21 ft 14 kts 182°
2026-05-05 16:34 10.44313 -75.51292 21 ft 16 kts 183°
2026-05-05 16:34 10.44192 -75.51298 21 ft 19 kts 181°
2026-05-05 16:35 10.44064 -75.51299 21 ft 18 kts 182°
2026-05-05 16:35 10.43939 -75.51305 21 ft 18 kts 184°
2026-05-05 16:35 10.43819 -75.51313 21 ft 17 kts 182°
2026-05-05 16:35 10.43701 -75.51317 21 ft 17 kts 182°
2026-05-05 16:36 10.43583 -75.51323 21 ft 17 kts 181°
2026-05-05 16:36 10.43465 -75.51328 21 ft 17 kts 183°
2026-05-05 16:36 10.43343 -75.51335 21 ft 18 kts 182°
2026-05-05 16:36 10.43243 -75.51325 21 ft 12 kts 148°
2026-05-05 16:37 10.43187 -75.51279 21 ft 9 kts 139°
2026-05-05 16:37 10.43135 -75.51243 21 ft 9 kts 166°
2026-05-05 16:37 10.43079 -75.51262 21 ft 6 kts 234°
2026-05-05 16:37 10.43073 -75.51281 21 ft 2 kts 262°
2026-05-05 16:39 10.43071 -75.51299 21 ft 6 kts 266°
2026-05-05 16:39 10.43073 -75.51342 21 ft 4 kts 305°
2026-05-05 16:39 10.43088 -75.51343 21 ft 0 kts
2026-05-05 16:40 10.43163 -75.51339 21 ft 41 kts
2026-05-05 16:40 10.43708 -75.51318 21 ft 114 kts
2026-05-05 16:41 10.44718 -75.51278 27 ft 172 kts
2026-05-05 16:41 10.45919 -75.51228 775 ft 174 kts
2026-05-05 16:41 10.47147 -75.51164 1334 ft 183 kts
2026-05-05 16:41 10.48458 -75.51110 1576 ft 195 kts
2026-05-05 16:42 10.49860 -75.51057 1856 ft 208 kts
2026-05-05 16:42 10.51351 -75.50998 2149 ft 221 kts
2026-05-05 16:42 10.52950 -75.50930 2402 ft 239 kts
2026-05-05 16:42 10.54632 -75.51173 2748 ft 254 kts 336°
2026-05-05 16:43 10.56091 -75.52250 3163 ft 267 kts 317°
2026-05-05 16:43 10.57572 -75.53407 3635 ft 276 kts 333°
2026-05-05 16:43 10.59349 -75.54173 4297 ft 279 kts 341°
2026-05-05 16:43 10.61173 -75.54863 4992 ft 281 kts 340°
2026-05-05 16:44 10.62982 -75.55630 5679 ft 283 kts 336°
2026-05-05 16:44 10.64778 -75.56480 6307 ft 286 kts 335°
2026-05-05 16:44 10.66589 -75.57352 6927 ft 290 kts 336°
2026-05-05 16:44 10.68438 -75.58214 7543 ft 293 kts 336°
2026-05-05 16:45 10.70305 -75.59062 8157 ft 295 kts 337°
2026-05-05 16:45 10.72191 -75.59917 8749 ft 297 kts 336°
2026-05-05 16:45 10.74089 -75.60786 9321 ft 300 kts 336°
2026-05-05 16:45 10.75999 -75.61665 9873 ft 303 kts 336°
2026-05-05 16:46 10.77934 -75.62557 10349 ft 308 kts 336°
2026-05-05 16:46 10.79904 -75.63464 10571 ft 322 kts 336°
2026-05-05 16:46 10.82005 -75.64430 10747 ft 337 kts 336°
2026-05-05 16:46 10.84183 -75.65432 10927 ft 350 kts 336°
2026-05-05 16:47 10.86446 -75.66472 11092 ft 363 kts 336°
2026-05-05 16:47 10.88798 -75.67555 11251 ft 376 kts 336°
2026-05-05 16:47 10.91210 -75.68665 11512 ft 384 kts 336°
2026-05-05 16:47 10.93650 -75.69788 11933 ft 387 kts 336°
2026-05-05 16:48 10.96110 -75.70921 12356 ft 389 kts 336°
2026-05-05 16:48 10.98580 -75.72058 12768 ft 391 kts 336°
2026-05-05 16:48 11.01069 -75.73204 13172 ft 394 kts 336°
2026-05-05 16:48 11.03585 -75.74331 13561 ft 396 kts 340°
2026-05-05 16:49 11.06213 -75.75183 13951 ft 397 kts 345°
2026-05-05 16:49 11.08850 -75.75922 14316 ft 399 kts 346°
2026-05-05 16:49 11.11541 -75.76633 14681 ft 401 kts 346°
2026-05-05 16:49 11.14249 -75.77349 15053 ft 403 kts 346°
2026-05-05 16:50 11.16967 -75.78088 15426 ft 404 kts 346°
2026-05-05 16:50 11.19689 -75.78850 15791 ft 405 kts 345°
2026-05-05 16:50 11.22415 -75.79620 16149 ft 406 kts 345°
2026-05-05 16:50 11.25143 -75.80387 16498 ft 408 kts 345°
2026-05-05 16:51 11.27875 -75.81146 16956 ft 406 kts 345°
2026-05-05 16:51 11.30603 -75.81900 17372 ft 405 kts 345°
2026-05-05 16:51 11.33331 -75.82656 17713 ft 406 kts 345°
2026-05-05 16:51 11.36072 -75.83418 18033 ft 408 kts 345°
2026-05-05 16:52 11.38782 -75.84172 18333 ft 410 kts 345°
2026-05-05 16:52 11.41542 -75.84941 18631 ft 412 kts 345°
2026-05-05 16:52 11.44314 -75.85713 18920 ft 414 kts 345°
2026-05-05 16:52 11.47105 -75.86490 19202 ft 415 kts 344°
2026-05-05 16:53 11.49895 -75.87266 19478 ft 417 kts 344°
2026-05-05 16:53 11.52702 -75.88048 19754 ft 419 kts 344°
2026-05-05 16:53 11.55528 -75.88835 20032 ft 421 kts 344°
2026-05-05 16:53 11.58366 -75.89626 20299 ft 422 kts 344°
2026-05-05 16:54 11.61206 -75.90417 20565 ft 424 kts 344°
2026-05-05 16:54 11.64058 -75.91212 20816 ft 425 kts 344°
2026-05-05 16:54 11.66921 -75.92010 21071 ft 427 kts 344°
2026-05-05 16:54 11.69792 -75.92810 21309 ft 428 kts 344°
2026-05-05 16:55 11.72636 -75.93604 21495 ft 431 kts 344°
2026-05-05 16:55 11.75547 -75.94416 21684 ft 433 kts 344°
2026-05-05 16:55 11.78464 -75.95229 21906 ft 435 kts 344°
2026-05-05 16:55 11.81383 -75.96051 22131 ft 436 kts 344°
2026-05-05 16:56 11.84313 -75.96888 22342 ft 437 kts 344°
2026-05-05 16:56 11.87246 -75.97731 22559 ft 439 kts 344°
2026-05-05 16:56 11.90186 -75.98573 22763 ft 440 kts 344°
2026-05-05 16:56 11.93144 -75.99414 22968 ft 441 kts 344°
2026-05-05 16:57 11.96108 -76.00255 23169 ft 442 kts 344°
2026-05-05 16:57 11.99035 -76.01085 23360 ft 443 kts 344°
2026-05-05 16:57 12.02017 -76.01934 23555 ft 445 kts 344°
2026-05-05 16:57 12.05005 -76.02787 23742 ft 446 kts 344°
2026-05-05 16:58 12.08001 -76.03642 23926 ft 447 kts 344°
2026-05-05 16:58 12.11000 -76.04498 24109 ft 448 kts 344°
2026-05-05 16:58 12.14004 -76.05354 24283 ft 449 kts 344°
2026-05-05 16:58 12.17024 -76.06215 24458 ft 450 kts 344°
2026-05-05 16:59 12.20041 -76.07075 24629 ft 451 kts 344°
2026-05-05 16:59 12.23066 -76.07938 24791 ft 452 kts 344°
2026-05-05 16:59 12.26106 -76.08806 24956 ft 453 kts 344°
2026-05-05 16:59 12.29106 -76.09663 25115 ft 454 kts 344°
2026-05-05 17:00 12.32158 -76.10535 25265 ft 455 kts 344°
2026-05-05 17:00 12.35215 -76.11411 25417 ft 456 kts 344°
2026-05-05 17:00 12.38286 -76.12290 25570 ft 457 kts 344°
2026-05-05 17:00 12.41356 -76.13168 25717 ft 458 kts 344°
2026-05-05 17:01 12.44429 -76.14047 25861 ft 459 kts 344°
2026-05-05 17:01 12.47514 -76.14930 26007 ft 461 kts 343°
2026-05-05 17:01 12.50602 -76.15814 26147 ft 462 kts 343°
2026-05-05 17:01 12.53699 -76.16701 26284 ft 462 kts 343°
2026-05-05 17:02 12.56801 -76.17591 26418 ft 463 kts 343°
2026-05-05 17:02 12.59905 -76.18480 26552 ft 464 kts 343°
2026-05-05 17:02 12.62982 -76.19365 26681 ft 465 kts 343°
2026-05-05 17:02 12.66117 -76.20264 26807 ft 466 kts 343°
2026-05-05 17:03 12.69247 -76.21161 26934 ft 467 kts 343°
2026-05-05 17:03 12.72380 -76.22059 27061 ft 468 kts 343°
2026-05-05 17:03 12.74497 -76.22666 27142 ft 469 kts 343°
2026-05-05 17:03 12.77611 -76.23561 27257 ft 470 kts 343°
2026-05-05 17:04 12.80759 -76.24465 27365 ft 471 kts 343°
2026-05-05 17:04 12.83914 -76.25371 27534 ft 470 kts 343°
2026-05-05 17:04 12.87070 -76.26276 27697 ft 470 kts 343°
2026-05-05 17:04 12.90220 -76.27181 27859 ft 470 kts 343°
2026-05-05 17:05 12.93369 -76.28086 28026 ft 470 kts 343°
2026-05-05 17:05 12.96514 -76.28991 28188 ft 469 kts 343°
2026-05-05 17:05 12.99666 -76.29898 28346 ft 469 kts 343°
2026-05-05 17:05 13.02812 -76.30804 28506 ft 469 kts 343°
2026-05-05 17:06 13.05916 -76.31698 28667 ft 469 kts 343°
2026-05-05 17:06 13.09058 -76.32603 28825 ft 469 kts 343°
2026-05-05 17:06 13.12202 -76.33507 28984 ft 468 kts 343°
2026-05-05 17:06 13.15339 -76.34410 29137 ft 468 kts 343°
2026-05-05 17:07 13.18488 -76.35317 29288 ft 468 kts 343°
2026-05-05 17:07 13.21627 -76.36221 29438 ft 468 kts 343°
2026-05-05 17:07 13.24760 -76.37125 29591 ft 468 kts 343°
2026-05-05 17:07 13.27891 -76.38029 29739 ft 468 kts 342°
2026-05-05 17:08 13.30993 -76.38925 29880 ft 468 kts 342°
2026-05-05 17:08 13.34126 -76.39826 30032 ft 467 kts 342°
2026-05-05 17:08 13.37261 -76.40728 30178 ft 467 kts 342°
2026-05-05 17:08 13.40394 -76.41632 30316 ft 467 kts 342°
2026-05-05 17:09 13.43528 -76.42538 30456 ft 467 kts 342°
2026-05-05 17:09 13.46662 -76.43442 30600 ft 467 kts 341°
2026-05-05 17:09 13.49779 -76.44342 30905 ft 462 kts 341°
2026-05-05 17:09 13.52864 -76.45233 31183 ft 459 kts 341°
2026-05-05 17:10 13.59048 -76.47022 31359 ft 461 kts 341°
2026-05-05 17:10 13.62140 -76.47917 31488 ft 462 kts 341°
2026-05-05 17:10 13.65193 -76.48800 31614 ft 462 kts 341°
2026-05-05 17:11 13.68284 -76.49693 31736 ft 462 kts 341°
2026-05-05 17:11 13.71386 -76.50591 31854 ft 462 kts 340°
2026-05-05 17:11 13.74480 -76.51489 31974 ft 462 kts 340°
2026-05-05 17:11 13.77577 -76.52387 31989 ft 462 kts 340°
2026-05-05 17:12 13.83786 -76.54184 31993 ft 462 kts 340°
2026-05-05 17:12 13.89966 -76.55976 31995 ft 461 kts 340°
2026-05-05 17:13 13.96107 -76.57757 31997 ft 461 kts 340°
2026-05-05 17:13 14.02297 -76.59555 32001 ft 461 kts 340°
2026-05-05 17:14 14.08471 -76.61347 32001 ft 461 kts 340°
2026-05-05 17:14 14.14650 -76.63139 31983 ft 461 kts 340°
2026-05-05 17:15 14.20839 -76.64938 31996 ft 461 kts 340°
2026-05-05 17:15 14.26999 -76.66731 31972 ft 462 kts 340°
2026-05-05 17:16 14.33179 -76.68527 31974 ft 461 kts 340°
2026-05-05 17:16 14.39370 -76.70329 31976 ft 461 kts 340°
2026-05-05 17:17 14.45563 -76.72133 32195 ft 461 kts 340°
2026-05-05 17:17 14.48652 -76.73033 32326 ft 461 kts 340°
2026-05-05 17:17 14.51707 -76.73923 32462 ft 461 kts 340°
2026-05-05 17:18 14.54825 -76.74832 32609 ft 460 kts 340°
2026-05-05 17:18 14.57865 -76.75718 32743 ft 460 kts 340°
2026-05-05 17:18 14.60948 -76.76618 32874 ft 459 kts 340°
2026-05-05 17:18 14.64023 -76.77514 33009 ft 459 kts 340°
2026-05-05 17:19 14.67097 -76.78411 33141 ft 458 kts 340°
2026-05-05 17:19 14.70165 -76.79307 33265 ft 458 kts 340°
2026-05-05 17:19 14.73231 -76.80202 33387 ft 457 kts 340°
2026-05-05 17:19 14.76290 -76.81096 33519 ft 457 kts 340°
2026-05-05 17:20 14.79347 -76.81989 33649 ft 456 kts 340°
2026-05-05 17:20 14.82412 -76.82886 33771 ft 456 kts 340°
2026-05-05 17:20 14.85462 -76.83777 33885 ft 456 kts 340°
2026-05-05 17:20 14.88516 -76.84670 33994 ft 456 kts 340°
2026-05-05 17:21 14.94611 -76.86453 34004 ft 455 kts 340°
2026-05-05 17:22 15.03813 -76.88938 34010 ft 456 kts 343°
2026-05-05 17:22 15.09980 -76.90340 34011 ft 456 kts 343°
2026-05-05 17:23 15.16180 -76.91753 34014 ft 456 kts 343°
2026-05-05 17:23 15.22377 -76.93198 34015 ft 456 kts 343°
2026-05-05 17:24 15.28572 -76.94631 34014 ft 456 kts 343°
2026-05-05 17:24 15.34762 -76.96059 34014 ft 456 kts 343°
2026-05-05 17:25 15.40974 -76.97497 34013 ft 456 kts 343°
2026-05-05 17:25 15.47122 -76.98921 34016 ft 456 kts 343°
2026-05-05 17:26 15.53330 -77.00360 34022 ft 456 kts 343°
2026-05-05 17:26 15.59518 -77.01795 34029 ft 456 kts 343°
2026-05-05 17:27 15.65712 -77.03231 34036 ft 455 kts 343°
2026-05-05 17:27 15.71861 -77.04659 34043 ft 455 kts 343°
2026-05-05 17:28 15.78049 -77.06096 34051 ft 455 kts 343°
2026-05-05 17:28 15.84231 -77.07533 34051 ft 455 kts 343°
2026-05-05 17:29 15.90412 -77.08970 34053 ft 455 kts 343°
2026-05-05 17:29 15.96604 -77.10412 34052 ft 455 kts 343°
2026-05-05 17:30 16.02782 -77.11850 34052 ft 455 kts 343°
2026-05-05 17:30 16.08972 -77.13293 34054 ft 455 kts 343°
2026-05-05 17:31 16.15119 -77.14727 34053 ft 455 kts 343°
2026-05-05 17:31 16.21298 -77.16168 34050 ft 455 kts 343°
2026-05-05 17:32 16.27476 -77.17611 34049 ft 455 kts 343°
2026-05-05 17:32 16.33660 -77.19056 34047 ft 455 kts 343°
2026-05-05 17:33 16.38806 -77.20259 34047 ft 455 kts 343°
2026-05-05 17:33 16.46026 -77.21948 34046 ft 455 kts 343°
2026-05-05 17:34 16.52200 -77.23392 34046 ft 455 kts 343°
2026-05-05 17:34 16.58336 -77.24831 34046 ft 455 kts 343°
2026-05-05 17:35 16.64511 -77.26281 34047 ft 455 kts 343°
2026-05-05 17:35 16.70682 -77.27728 34048 ft 455 kts 342°
2026-05-05 17:36 16.76857 -77.29178 34049 ft 454 kts 342°
2026-05-05 17:36 16.83036 -77.30632 34051 ft 454 kts 342°
2026-05-05 17:37 16.89207 -77.32082 34053 ft 454 kts 342°
2026-05-05 17:37 16.95373 -77.33533 34055 ft 454 kts 342°
2026-05-05 17:38 17.01507 -77.34979 34058 ft 454 kts 342°
2026-05-05 17:38 17.07670 -77.36430 34072 ft 453 kts 342°
2026-05-05 17:39 17.13798 -77.37875 34073 ft 450 kts 342°
2026-05-05 17:39 17.19896 -77.39315 34053 ft 448 kts 342°
2026-05-05 17:40 17.25972 -77.40749 34010 ft 446 kts 342°
2026-05-05 17:40 17.32037 -77.42182 33986 ft 446 kts 342°
2026-05-05 17:41 17.38051 -77.43605 33981 ft 447 kts 342°
2026-05-05 17:41 17.44133 -77.45044 33986 ft 448 kts 342°
2026-05-05 17:42 17.50223 -77.46487 33980 ft 449 kts 342°
2026-05-05 17:42 17.56331 -77.47933 33985 ft 451 kts 342°
2026-05-05 17:43 17.62467 -77.49388 34006 ft 451 kts 342°
2026-05-05 17:43 17.68554 -77.50831 34064 ft 451 kts 342°
2026-05-05 17:44 17.74681 -77.52287 34073 ft 451 kts 342°
2026-05-05 17:44 17.80892 -77.53761 34073 ft 451 kts 342°
2026-05-05 17:45 17.87014 -77.55215 34069 ft 451 kts 342°
2026-05-05 17:45 17.93098 -77.56663 34050 ft 451 kts 342°
2026-05-05 17:46 17.99222 -77.58121 34031 ft 451 kts 342°
2026-05-05 17:46 18.05352 -77.59582 34019 ft 451 kts 342°
2026-05-05 17:47 18.10440 -77.60795 34014 ft 451 kts 342°
2026-05-05 17:47 18.16572 -77.62257 34012 ft 451 kts 342°
2026-05-05 17:48 18.22703 -77.63720 34015 ft 451 kts 342°
2026-05-05 17:48 18.28828 -77.65184 34018 ft 452 kts 342°
2026-05-05 17:49 18.34963 -77.66650 34021 ft 452 kts 342°
2026-05-05 17:49 18.41092 -77.68115 34025 ft 452 kts 342°
2026-05-05 17:50 18.47193 -77.69577 34030 ft 452 kts 342°
2026-05-05 17:50 18.53328 -77.71048 34038 ft 452 kts 342°
2026-05-05 17:51 18.59465 -77.72518 34050 ft 452 kts 342°
2026-05-05 17:51 18.65602 -77.73989 34067 ft 452 kts 342°
2026-05-05 17:52 18.71698 -77.75454 34070 ft 452 kts 342°
2026-05-05 17:52 18.77827 -77.76927 34072 ft 451 kts 342°
2026-05-05 17:53 18.83957 -77.78400 34073 ft 451 kts 342°
2026-05-05 17:53 18.90070 -77.79872 34070 ft 450 kts 342°
2026-05-05 17:54 18.96177 -77.81342 34067 ft 450 kts 342°
2026-05-05 17:54 19.02292 -77.82815 34062 ft 449 kts 342°
2026-05-05 17:55 19.08381 -77.84283 34059 ft 449 kts 342°
2026-05-05 17:55 19.14468 -77.85753 34058 ft 448 kts 342°
2026-05-05 17:56 19.20552 -77.87222 34058 ft 448 kts 342°
2026-05-05 17:56 19.26618 -77.88690 34070 ft 446 kts 342°
2026-05-05 17:57 19.32621 -77.90141 34083 ft 444 kts 342°
2026-05-05 17:57 19.38621 -77.91592 34079 ft 441 kts 342°
2026-05-05 17:58 19.44619 -77.93047 34044 ft 439 kts 342°
2026-05-05 17:58 19.50540 -77.94483 34002 ft 438 kts 342°
2026-05-05 17:59 19.56488 -77.95925 33995 ft 438 kts 342°
2026-05-05 17:59 19.62434 -77.97370 33999 ft 439 kts 342°
2026-05-05 18:00 19.68394 -77.98819 34001 ft 439 kts 342°
2026-05-05 18:00 19.74359 -78.00269 34034 ft 440 kts 342°
2026-05-05 18:01 19.80326 -78.01720 34093 ft 439 kts 343°
2026-05-05 18:01 19.86320 -78.02885 34091 ft 441 kts 346°
2026-05-05 18:02 19.92413 -78.03956 34092 ft 440 kts 346°
2026-05-05 18:02 19.98408 -78.05029 34096 ft 439 kts 346°
2026-05-05 18:03 20.04399 -78.06122 34108 ft 435 kts 345°
2026-05-05 18:03 20.10349 -78.07196 34103 ft 432 kts 345°
2026-05-05 18:04 20.16272 -78.08263 34069 ft 430 kts 345°
2026-05-05 18:04 20.22156 -78.09328 34026 ft 428 kts 345°
2026-05-05 18:05 20.28028 -78.10393 34016 ft 428 kts 345°
2026-05-05 18:05 20.33906 -78.11458 34021 ft 429 kts 345°
2026-05-05 18:06 20.39796 -78.12526 34019 ft 430 kts 345°
2026-05-05 18:06 20.45711 -78.13600 34019 ft 432 kts 345°
2026-05-05 18:07 20.51639 -78.14676 34041 ft 432 kts 345°
2026-05-05 18:07 20.57564 -78.15753 34098 ft 432 kts 345°
2026-05-05 18:08 20.63491 -78.16831 34115 ft 432 kts 345°
2026-05-05 18:08 20.69414 -78.17909 34116 ft 432 kts 345°
2026-05-05 18:09 20.75304 -78.18982 34112 ft 431 kts 345°
2026-05-05 18:09 20.81263 -78.20069 34106 ft 431 kts 345°
2026-05-05 18:10 20.87168 -78.21145 34098 ft 431 kts 345°
2026-05-05 18:10 20.93050 -78.22220 34094 ft 431 kts 345°
2026-05-05 18:11 20.98961 -78.23302 34109 ft 430 kts 345°
2026-05-05 18:11 21.04873 -78.24381 34088 ft 430 kts 345°
2026-05-05 18:12 21.10771 -78.25461 34082 ft 430 kts 345°
2026-05-05 18:12 21.16684 -78.26545 34074 ft 430 kts 345°
2026-05-05 18:13 21.22585 -78.27629 34069 ft 430 kts 345°
2026-05-05 18:13 21.28457 -78.28707 34051 ft 431 kts 345°
2026-05-05 18:14 21.34374 -78.29795 34031 ft 431 kts 345°
2026-05-05 18:14 21.40289 -78.30883 34032 ft 431 kts 345°
2026-05-05 18:15 21.46204 -78.31972 34034 ft 431 kts 345°
2026-05-05 18:15 21.52118 -78.33062 34041 ft 431 kts 345°
2026-05-05 18:16 21.57996 -78.34145 34048 ft 431 kts 345°
2026-05-05 18:16 21.63904 -78.35235 34055 ft 431 kts 345°
2026-05-05 18:17 21.69825 -78.36330 34062 ft 431 kts 345°
2026-05-05 18:17 21.75733 -78.37421 34070 ft 431 kts 345°
2026-05-05 18:18 21.81598 -78.38506 34078 ft 431 kts 345°
2026-05-05 18:18 21.87507 -78.39601 34087 ft 431 kts 345°
2026-05-05 18:19 21.93424 -78.40697 34096 ft 431 kts 345°
2026-05-05 18:19 21.99337 -78.41794 34079 ft 431 kts 345°
2026-05-05 18:20 22.05252 -78.42892 34043 ft 431 kts 345°
2026-05-05 18:20 22.11168 -78.43991 34027 ft 431 kts 345°
2026-05-05 18:21 22.17052 -78.45086 34021 ft 431 kts 345°
2026-05-05 18:21 22.22969 -78.46187 34022 ft 431 kts 345°
2026-05-05 18:22 22.28881 -78.47288 34025 ft 431 kts 345°
2026-05-05 18:22 22.34792 -78.48391 34031 ft 431 kts 345°
2026-05-05 18:23 22.40671 -78.49487 34041 ft 431 kts 345°
2026-05-05 18:23 22.46579 -78.50590 34051 ft 431 kts 345°
2026-05-05 18:24 22.52519 -78.51703 34044 ft 434 kts 344°
2026-05-05 18:24 22.58525 -78.52829 34042 ft 442 kts 345°
2026-05-05 18:25 22.64595 -78.53962 34036 ft 447 kts 345°
2026-05-05 18:25 22.70766 -78.55117 34033 ft 446 kts 345°
2026-05-05 18:26 22.76828 -78.56253 34036 ft 437 kts 345°
2026-05-05 18:26 22.82822 -78.57378 34044 ft 437 kts 345°
2026-05-05 18:27 22.88772 -78.58498 34046 ft 436 kts 345°
2026-05-05 18:27 22.94750 -78.59620 34063 ft 435 kts 344°
2026-05-05 18:28 23.03650 -78.61298 34099 ft 430 kts 344°
2026-05-05 18:28 23.09529 -78.62402 34108 ft 426 kts 343°
2026-05-05 18:29 23.15360 -78.63503 34108 ft 422 kts 343°
2026-05-05 18:29 23.21090 -78.64587 34095 ft 418 kts 343°
2026-05-05 18:30 23.26792 -78.65664 34091 ft 413 kts 343°
2026-05-05 18:30 23.32435 -78.66731 34055 ft 411 kts 343°
2026-05-05 18:31 23.38054 -78.67797 34029 ft 410 kts 343°
2026-05-05 18:31 23.43671 -78.68861 34027 ft 410 kts 343°
2026-05-05 18:32 23.48365 -78.69750 34026 ft 411 kts 343°
2026-05-05 18:32 23.54012 -78.70823 34029 ft 412 kts 343°
2026-05-05 18:33 23.60599 -78.72075 34028 ft 414 kts 343°
2026-05-05 18:33 23.65368 -78.72981 34043 ft 415 kts 343°
2026-05-05 18:34 23.71051 -78.74062 34092 ft 414 kts 343°
2026-05-05 18:34 23.76701 -78.75138 34117 ft 415 kts 343°
2026-05-05 18:35 23.82393 -78.76224 34115 ft 415 kts 343°
2026-05-05 18:35 23.88091 -78.77310 34114 ft 415 kts 343°
2026-05-05 18:36 23.93786 -78.78397 34114 ft 414 kts 343°
2026-05-05 18:36 23.99485 -78.79436 34105 ft 417 kts 347°
2026-05-05 18:37 24.05320 -78.79482 34090 ft 425 kts 354°
2026-05-05 18:37 24.11317 -78.79155 34079 ft 424 kts 356°
2026-05-05 18:38 24.17119 -78.78905 34075 ft 415 kts 355°
2026-05-05 18:38 24.22861 -78.78735 34066 ft 415 kts 355°
2026-05-05 18:39 24.28648 -78.78517 34064 ft 416 kts 355°
2026-05-05 18:39 24.34455 -78.78286 34062 ft 418 kts 355°
2026-05-05 18:40 24.40272 -78.78069 34068 ft 418 kts 355°
2026-05-05 18:40 24.46087 -78.77851 34071 ft 418 kts 355°
2026-05-05 18:41 24.51903 -78.77630 34073 ft 418 kts 355°
2026-05-05 18:41 24.57692 -78.77411 34081 ft 418 kts 355°
2026-05-05 18:42 24.63512 -78.77191 34089 ft 418 kts 355°
2026-05-05 18:42 24.69331 -78.76969 34097 ft 418 kts 355°
2026-05-05 18:43 24.75153 -78.76748 34098 ft 418 kts 355°
2026-05-05 18:43 24.80974 -78.76528 34100 ft 418 kts 355°
2026-05-05 18:44 24.86776 -78.76307 34098 ft 418 kts 355°
2026-05-05 18:44 24.92602 -78.76084 34097 ft 419 kts 355°
2026-05-05 18:45 24.98443 -78.75861 34097 ft 419 kts 355°
2026-05-05 18:45 25.04228 -78.75641 34096 ft 419 kts 355°
2026-05-05 18:46 25.10069 -78.75417 34090 ft 419 kts 355°
2026-05-05 18:46 25.15900 -78.75195 34084 ft 419 kts 355°
2026-05-05 18:47 25.21725 -78.74972 34085 ft 419 kts 355°
2026-05-05 18:47 25.27563 -78.74747 34085 ft 419 kts 355°
2026-05-05 18:48 25.33352 -78.74525 34094 ft 419 kts 355°
2026-05-05 18:48 25.39173 -78.74301 34096 ft 418 kts 355°
2026-05-05 18:49 25.44996 -78.74079 34075 ft 417 kts 355°
2026-05-05 18:49 25.50812 -78.73856 34032 ft 418 kts 355°
2026-05-05 18:50 25.56629 -78.73632 34011 ft 418 kts 355°
2026-05-05 18:50 25.62408 -78.73408 34010 ft 418 kts 355°
2026-05-05 18:51 25.68227 -78.73184 34019 ft 418 kts 355°
2026-05-05 18:51 25.74042 -78.72959 34034 ft 417 kts 354°
2026-05-05 18:52 25.79844 -78.72735 34055 ft 417 kts 354°
2026-05-05 18:52 25.85651 -78.72511 34080 ft 417 kts 354°
2026-05-05 18:53 25.91421 -78.72288 34096 ft 417 kts 354°
2026-05-05 18:53 25.97220 -78.72063 34098 ft 416 kts 354°
2026-05-05 18:54 26.03004 -78.71838 34100 ft 415 kts 354°
2026-05-05 18:54 26.08752 -78.71615 34099 ft 414 kts 354°
2026-05-05 18:55 26.14511 -78.71391 34093 ft 414 kts 354°
2026-05-05 18:55 26.20264 -78.71167 34082 ft 413 kts 354°
2026-05-05 18:56 26.26013 -78.70943 34070 ft 413 kts 354°
2026-05-05 18:56 26.31750 -78.70720 34056 ft 412 kts 354°
2026-05-05 18:57 26.37484 -78.70496 34041 ft 412 kts 354°
2026-05-05 18:57 26.43210 -78.70272 34024 ft 411 kts 354°
2026-05-05 18:58 26.48933 -78.70048 34010 ft 411 kts 354°
2026-05-05 18:58 26.54611 -78.69822 34011 ft 411 kts 355°
2026-05-05 18:59 26.60366 -78.69113 34008 ft 417 kts 359°
2026-05-05 18:59 26.66125 -78.68203 34008 ft 418 kts 359°
2026-05-05 19:00 26.71876 -78.67328 34043 ft 417 kts 359°
2026-05-05 19:00 26.77655 -78.66474 34051 ft 418 kts 359°
2026-05-05 19:01 26.83399 -78.65608 34079 ft 418 kts 359°
2026-05-05 19:01 26.89166 -78.64735 34100 ft 418 kts 359°
2026-05-05 19:02 26.94937 -78.63867 34122 ft 418 kts 359°
2026-05-05 19:02 27.00716 -78.62995 34126 ft 419 kts 359°
2026-05-05 19:03 27.06490 -78.62122 34126 ft 419 kts 359°
2026-05-05 19:03 27.12267 -78.61248 34126 ft 419 kts 359°
2026-05-05 19:04 27.18041 -78.60373 34127 ft 418 kts 359°
2026-05-05 19:04 27.23817 -78.59498 34122 ft 418 kts 359°
2026-05-05 19:05 27.29551 -78.58629 34122 ft 418 kts 359°
2026-05-05 19:05 27.35354 -78.57747 34122 ft 418 kts 359°
2026-05-05 19:06 27.41087 -78.56875 34121 ft 418 kts 359°
2026-05-05 19:06 27.46846 -78.55998 34127 ft 418 kts 359°
2026-05-05 19:07 27.51681 -78.55262 34126 ft 418 kts 359°
2026-05-05 19:07 27.58394 -78.54238 34129 ft 418 kts 359°
2026-05-05 19:08 27.64165 -78.53356 34127 ft 418 kts 359°
2026-05-05 19:08 27.69931 -78.52473 34126 ft 418 kts 359°
2026-05-05 19:09 27.75692 -78.51590 34126 ft 418 kts 359°
2026-05-05 19:09 27.81421 -78.50712 34126 ft 418 kts 359°
2026-05-05 19:10 27.87179 -78.49828 34126 ft 418 kts 359°
2026-05-05 19:10 27.92944 -78.48941 34126 ft 418 kts 359°
2026-05-05 19:11 27.98707 -78.48054 34124 ft 418 kts 359°
2026-05-05 19:11 28.04468 -78.47167 34122 ft 417 kts 359°
2026-05-05 19:12 28.10225 -78.46280 34121 ft 417 kts 359°
2026-05-05 19:12 28.15987 -78.45390 34103 ft 418 kts 359°
2026-05-05 19:13 28.21764 -78.44499 34060 ft 419 kts 359°
2026-05-05 19:13 28.27517 -78.43608 34028 ft 420 kts 359°
2026-05-05 19:14 28.32375 -78.42853 34028 ft 420 kts 359°
2026-05-05 19:14 28.39129 -78.41810 34039 ft 421 kts 359°
2026-05-05 19:15 28.44919 -78.40910 34073 ft 421 kts 359°
2026-05-05 19:15 28.50726 -78.40008 34102 ft 421 kts 359°
2026-05-05 19:16 28.55590 -78.39254 34115 ft 421 kts 359°
2026-05-05 19:16 28.61379 -78.38352 34115 ft 422 kts 359°
2026-05-05 19:17 28.67197 -78.37444 34115 ft 421 kts 359°
2026-05-05 19:17 28.73019 -78.36539 34115 ft 421 kts 359°
2026-05-05 19:18 28.78821 -78.35633 34116 ft 421 kts 359°
2026-05-05 19:18 28.84630 -78.34723 34114 ft 421 kts 359°
2026-05-05 19:19 28.90404 -78.33820 34110 ft 421 kts 359°
2026-05-05 19:19 28.96209 -78.32912 34105 ft 421 kts 359°
2026-05-05 19:20 29.02013 -78.32002 34101 ft 421 kts 359°
2026-05-05 19:20 29.07826 -78.31089 34103 ft 421 kts 359°
2026-05-05 19:21 29.13632 -78.30177 34103 ft 421 kts 359°
2026-05-05 19:21 29.19446 -78.29262 34105 ft 421 kts 359°
2026-05-05 19:22 29.25266 -78.28347 34109 ft 421 kts 359°
2026-05-05 19:22 29.31066 -78.27432 34118 ft 421 kts 359°
2026-05-05 19:23 29.36843 -78.26517 34130 ft 421 kts 359°
2026-05-05 19:23 29.42656 -78.25601 34138 ft 421 kts 359°
2026-05-05 19:24 29.48460 -78.24685 34146 ft 421 kts 359°
2026-05-05 19:24 29.54263 -78.23764 34154 ft 421 kts 359°
2026-05-05 19:25 29.60075 -78.22842 34156 ft 421 kts 359°
2026-05-05 19:25 29.65888 -78.21920 34155 ft 421 kts 359°
2026-05-05 19:26 29.71705 -78.20996 34155 ft 421 kts 359°
2026-05-05 19:26 29.77469 -78.20080 34155 ft 421 kts 359°
2026-05-05 19:27 29.83279 -78.19152 34150 ft 421 kts 359°
2026-05-05 19:27 29.89095 -78.18227 34139 ft 421 kts 359°
2026-05-05 19:28 29.94905 -78.17299 34135 ft 421 kts 359°
2026-05-05 19:28 30.00711 -78.16370 34133 ft 421 kts 359°
2026-05-05 19:29 30.06521 -78.15440 34131 ft 421 kts 359°
2026-05-05 19:29 30.12295 -78.14516 34133 ft 421 kts 359°
2026-05-05 19:30 30.18102 -78.13585 34137 ft 421 kts 359°
2026-05-05 19:30 30.23907 -78.12651 34138 ft 421 kts 359°
2026-05-05 19:31 30.29720 -78.11716 34141 ft 421 kts 359°
2026-05-05 19:31 30.35533 -78.10780 34135 ft 421 kts 359°
2026-05-05 19:32 30.41297 -78.09853 34116 ft 420 kts 359°
2026-05-05 19:32 30.47079 -78.08936 34096 ft 418 kts 359°
2026-05-05 19:33 30.52826 -78.08049 34091 ft 416 kts 359°
2026-05-05 19:33 30.58562 -78.07151 34051 ft 415 kts 359°
2026-05-05 19:34 30.64301 -78.06246 34009 ft 415 kts 359°
2026-05-05 19:35 30.72896 -78.04897 34011 ft 415 kts 359°
2026-05-05 19:35 30.78606 -78.03998 34011 ft 416 kts 359°
2026-05-05 19:36 30.84358 -78.03089 34011 ft 418 kts 359°
2026-05-05 19:36 30.90122 -78.02182 34046 ft 418 kts 359°
2026-05-05 19:37 30.95897 -78.01268 34082 ft 418 kts 359°
2026-05-05 19:37 31.01622 -78.00368 34097 ft 418 kts 359°
2026-05-05 19:38 31.07395 -77.99454 34100 ft 418 kts 359°
2026-05-05 19:38 31.13171 -77.98533 34085 ft 418 kts 359°
2026-05-05 19:39 31.18931 -77.97623 34051 ft 418 kts 359°
2026-05-05 19:39 31.24693 -77.96708 34032 ft 418 kts 359°
2026-05-05 19:40 31.30454 -77.95788 34020 ft 418 kts 359°
2026-05-05 19:40 31.36173 -77.94878 34016 ft 418 kts 359°
2026-05-05 19:41 31.41957 -77.93956 34019 ft 418 kts 359°
2026-05-05 19:41 31.47714 -77.93037 34025 ft 418 kts 359°
2026-05-05 19:42 31.53471 -77.92117 34032 ft 418 kts 359°
2026-05-05 19:42 31.59238 -77.91193 34038 ft 418 kts 359°
2026-05-05 19:43 31.64993 -77.90272 34104 ft 418 kts 358°
2026-05-05 19:43 31.70742 -77.89349 34108 ft 420 kts 358°
2026-05-05 19:44 31.76554 -77.88414 34108 ft 422 kts 358°
2026-05-05 19:44 31.82394 -77.87476 34109 ft 424 kts 358°
2026-05-05 19:45 31.88252 -77.86534 34112 ft 425 kts 358°
2026-05-05 19:45 31.91185 -77.86209 34227 ft 422 kts 355°
2026-05-05 19:45 31.94081 -77.85974 34398 ft 422 kts 355°
2026-05-05 19:45 31.97012 -77.85763 34569 ft 422 kts 354°
2026-05-05 19:46 31.99949 -77.85556 34744 ft 423 kts 355°
2026-05-05 19:46 32.02891 -77.85338 34903 ft 424 kts 355°
2026-05-05 19:46 32.05839 -77.85109 35058 ft 425 kts 355°
2026-05-05 19:47 32.11761 -77.84640 35149 ft 428 kts 356°
2026-05-05 19:47 32.17720 -77.84183 35156 ft 429 kts 356°
2026-05-05 19:48 32.23682 -77.83724 35158 ft 429 kts 357°
2026-05-05 19:48 32.29669 -77.83259 35153 ft 431 kts 357°
2026-05-05 19:49 32.35652 -77.82795 35153 ft 431 kts 357°
2026-05-05 19:49 32.41640 -77.82331 35152 ft 431 kts 357°
2026-05-05 19:50 32.47629 -77.81866 35147 ft 431 kts 357°
2026-05-05 19:50 32.53589 -77.81401 35138 ft 431 kts 357°
2026-05-05 19:51 32.59575 -77.80936 35129 ft 431 kts 357°
2026-05-05 19:51 32.65568 -77.80467 35121 ft 431 kts 357°
2026-05-05 19:52 32.71566 -77.79998 35111 ft 431 kts 357°
2026-05-05 19:52 32.77564 -77.79530 35105 ft 432 kts 357°
2026-05-05 19:53 32.83521 -77.79064 35100 ft 432 kts 357°
2026-05-05 19:53 32.89563 -77.78588 35097 ft 432 kts 358°
2026-05-05 19:54 32.95535 -77.78117 35100 ft 433 kts 358°
2026-05-05 19:54 33.01570 -77.77644 35100 ft 434 kts 358°
2026-05-05 19:55 33.07613 -77.77170 35099 ft 435 kts 358°
2026-05-05 19:55 33.13662 -77.76692 35113 ft 436 kts 358°
2026-05-05 19:56 33.19715 -77.76213 35142 ft 436 kts 358°
2026-05-05 19:56 33.25736 -77.75738 35156 ft 436 kts 358°
2026-05-05 19:57 33.31793 -77.75258 35165 ft 436 kts 358°
2026-05-05 19:57 33.37849 -77.74778 35169 ft 436 kts 358°
2026-05-05 19:58 33.43909 -77.74296 35170 ft 436 kts 358°
2026-05-05 19:58 33.49973 -77.73813 35169 ft 436 kts 358°
2026-05-05 19:59 33.56038 -77.73332 35164 ft 436 kts 358°
2026-05-05 19:59 33.62062 -77.72850 35157 ft 436 kts 358°
2026-05-05 20:00 33.67097 -77.72446 35153 ft 436 kts 358°
2026-05-05 20:00 33.73149 -77.71381 35137 ft 441 kts
2026-05-05 20:01 33.80177 -77.69788 35123 ft 441 kts
2026-05-05 20:01 33.85239 -77.68675 35118 ft 441 kts
2026-05-05 20:02 33.91278 -77.67379 35114 ft 441 kts
2026-05-05 20:02 33.97289 -77.66063 35110 ft 441 kts
2026-05-05 20:03 34.03336 -77.64734 35125 ft 441 kts
2026-05-05 20:03 34.09366 -77.63416 35137 ft 440 kts
2026-05-05 20:04 34.15399 -77.62093 35137 ft 440 kts
2026-05-05 20:04 34.21431 -77.60767 35138 ft 440 kts
2026-05-05 20:05 34.27462 -77.59439 35152 ft 440 kts
2026-05-05 20:05 34.33492 -77.58108 35162 ft 439 kts
2026-05-05 20:06 34.39475 -77.56788 35161 ft 439 kts
2026-05-05 20:06 34.45497 -77.55457 35163 ft 439 kts
2026-05-05 20:07 34.51501 -77.53993 35165 ft 443 kts 10°
2026-05-05 20:07 34.57225 -77.50981 35156 ft 451 kts 20°
2026-05-05 20:08 34.62772 -77.47498 35140 ft 451 kts 20°
2026-05-05 20:08 34.68378 -77.44111 35099 ft 449 kts 19°
2026-05-05 20:09 34.74008 -77.40799 35071 ft 450 kts 19°
2026-05-05 20:09 34.79621 -77.37419 35069 ft 450 kts 20°
2026-05-05 20:10 34.85235 -77.34022 35068 ft 451 kts 19°
2026-05-05 20:10 34.90870 -77.30636 35069 ft 452 kts 19°
2026-05-05 20:11 34.96505 -77.27236 35088 ft 452 kts 20°
2026-05-05 20:11 35.02137 -77.23829 35077 ft 453 kts 20°
2026-05-05 20:12 35.07791 -77.20405 35079 ft 454 kts 20°
2026-05-05 20:12 35.13456 -77.16969 35101 ft 454 kts 20°
2026-05-05 20:13 35.19115 -77.13533 35119 ft 454 kts 20°
2026-05-05 20:13 35.24787 -77.10084 35110 ft 454 kts 20°
2026-05-05 20:14 35.30409 -77.06657 35121 ft 454 kts 20°
2026-05-05 20:14 35.36113 -77.03176 35118 ft 454 kts 20°
2026-05-05 20:15 35.41773 -76.99716 35100 ft 454 kts 20°
2026-05-05 20:15 35.47386 -76.96283 35059 ft 454 kts 20°
2026-05-05 20:16 35.53042 -76.92816 35018 ft 454 kts 20°
2026-05-05 20:16 35.58699 -76.89339 35013 ft 454 kts 20°
2026-05-05 20:17 35.64360 -76.85895 35015 ft 455 kts 20°
2026-05-05 20:17 35.70059 -76.82452 35018 ft 456 kts 20°
2026-05-05 20:18 35.75712 -76.79002 35025 ft 457 kts 20°
2026-05-05 20:18 35.81415 -76.75517 35036 ft 457 kts 20°
2026-05-05 20:19 35.87117 -76.72038 35032 ft 458 kts 21°
2026-05-05 20:19 35.92799 -76.68442 35041 ft 460 kts 23°
2026-05-05 20:20 35.98425 -76.64644 35037 ft 461 kts 24°
2026-05-05 20:20 36.04062 -76.60828 35044 ft 462 kts 23°
2026-05-05 20:21 36.09706 -76.57020 35083 ft 462 kts 23°
2026-05-05 20:21 36.15355 -76.53201 35104 ft 462 kts 24°
2026-05-05 20:22 36.20970 -76.49392 35095 ft 463 kts 24°
2026-05-05 20:22 36.26635 -76.45546 35091 ft 463 kts 24°
2026-05-05 20:23 36.32282 -76.41705 35089 ft 463 kts 24°
2026-05-05 20:23 36.37893 -76.37880 35079 ft 463 kts 24°
2026-05-05 20:24 36.43545 -76.34024 35048 ft 464 kts 24°
2026-05-05 20:24 36.49200 -76.30161 35050 ft 463 kts 24°
2026-05-05 20:25 36.54856 -76.26286 35036 ft 464 kts 24°
2026-05-05 20:25 36.60517 -76.22403 35029 ft 464 kts 24°
2026-05-05 20:26 36.66162 -76.18525 35033 ft 463 kts 24°
2026-05-05 20:26 36.71809 -76.14639 35037 ft 463 kts 24°
2026-05-05 20:27 36.77418 -76.10772 35043 ft 463 kts 24°
2026-05-05 20:27 36.83049 -76.06884 35045 ft 463 kts 24°
2026-05-05 20:28 36.88692 -76.02981 35043 ft 463 kts 24°
2026-05-05 20:28 36.94324 -75.99078 35043 ft 463 kts 24°
2026-05-05 20:29 36.99960 -75.95168 35041 ft 463 kts 24°
2026-05-05 20:29 37.05606 -75.91242 35006 ft 464 kts 25°
2026-05-05 20:30 37.11406 -75.88000 34985 ft 456 kts 12°
2026-05-05 20:30 37.17524 -75.85904 34972 ft 454 kts
2026-05-05 20:31 37.23634 -75.83900 35004 ft 454 kts 11°
2026-05-05 20:31 37.29721 -75.81746 34981 ft 455 kts 11°
2026-05-05 20:32 37.35823 -75.79595 34984 ft 455 kts 11°
2026-05-05 20:32 37.41921 -75.77492 34978 ft 455 kts 11°
2026-05-05 20:33 37.48047 -75.75355 34980 ft 456 kts 11°
2026-05-05 20:33 37.54123 -75.73223 35003 ft 456 kts 11°
2026-05-05 20:34 37.60239 -75.71082 35052 ft 455 kts 11°
2026-05-05 20:34 37.66350 -75.68940 35069 ft 455 kts 11°
2026-05-05 20:35 37.72453 -75.66793 35075 ft 455 kts 11°
2026-05-05 20:35 37.78568 -75.64640 35057 ft 456 kts 11°
2026-05-05 20:36 37.84606 -75.62137 35030 ft 462 kts 22°
2026-05-05 20:36 37.90068 -75.57729 35003 ft 468 kts 32°
2026-05-05 20:37 37.95356 -75.52908 35010 ft 468 kts 31°
2026-05-05 20:37 38.00716 -75.48229 35007 ft 468 kts 30°
2026-05-05 20:38 38.06127 -75.43632 35025 ft 467 kts 29°
2026-05-05 20:38 38.11590 -75.39153 35033 ft 467 kts 29°
2026-05-05 20:39 38.17025 -75.34719 35037 ft 467 kts 29°
2026-05-05 20:39 38.22511 -75.30263 35005 ft 468 kts 27°
2026-05-05 20:40 38.28470 -75.27291 34989 ft 457 kts
2026-05-05 20:40 38.34756 -75.26034 34982 ft 456 kts
2026-05-05 20:41 38.41027 -75.24863 34982 ft 458 kts
2026-05-05 20:41 38.47321 -75.23476 34996 ft 459 kts
2026-05-05 20:42 38.53615 -75.22113 35027 ft 458 kts
2026-05-05 20:42 38.59924 -75.20825 35018 ft 458 kts
2026-05-05 20:43 38.65108 -75.19732 35562 ft 440 kts
2026-05-05 20:43 38.68074 -75.19048 36291 ft 429 kts
2026-05-05 20:43 38.70906 -75.17861 36668 ft 430 kts 21°
2026-05-05 20:43 38.73479 -75.15884 36879 ft 434 kts 33°
2026-05-05 20:44 38.76616 -75.12681 36992 ft 438 kts 36°
2026-05-05 20:44 38.80598 -75.08508 36985 ft 444 kts 35°
2026-05-05 20:45 38.88089 -75.01241 36985 ft 456 kts 33°
2026-05-05 20:45 38.92754 -74.95630 36468 ft 466 kts 50°
2026-05-05 20:46 38.94615 -74.92259 35728 ft 471 kts 54°
2026-05-05 20:46 38.96378 -74.88675 34839 ft 477 kts 56°
2026-05-05 20:46 38.98096 -74.84990 33896 ft 484 kts 57°
2026-05-05 20:46 38.99811 -74.81224 32900 ft 491 kts 57°
2026-05-05 20:47 39.01528 -74.77401 31885 ft 496 kts 57°
2026-05-05 20:47 39.03250 -74.73531 30920 ft 499 kts 57°
2026-05-05 20:47 39.05138 -74.69804 30042 ft 495 kts 47°
2026-05-05 20:47 39.07588 -74.66784 29437 ft 480 kts 32°
2026-05-05 20:48 39.10359 -74.64517 29167 ft 469 kts 26°
2026-05-05 20:48 39.13188 -74.62415 28785 ft 469 kts 25°
2026-05-05 20:48 39.16018 -74.60331 28138 ft 468 kts 26°
2026-05-05 20:48 39.18822 -74.58202 27482 ft 467 kts 27°
2026-05-05 20:49 39.21588 -74.56022 26792 ft 466 kts 27°
2026-05-05 20:49 39.24333 -74.53819 26129 ft 463 kts 28°
2026-05-05 20:49 39.27057 -74.51642 25481 ft 460 kts 27°
2026-05-05 20:49 39.29778 -74.49502 24843 ft 456 kts 27°
2026-05-05 20:50 39.32485 -74.47398 24170 ft 452 kts 27°
2026-05-05 20:50 39.35163 -74.45316 23526 ft 447 kts 27°
2026-05-05 20:50 39.37771 -74.43273 22913 ft 440 kts 27°
2026-05-05 20:50 39.40398 -74.41199 22283 ft 434 kts 28°
2026-05-05 20:51 39.42963 -74.39171 21654 ft 429 kts 28°
2026-05-05 20:51 39.45501 -74.37167 21033 ft 425 kts 28°
2026-05-05 20:51 39.48012 -74.35189 20446 ft 422 kts 28°
2026-05-05 20:51 39.50515 -74.33217 19843 ft 420 kts 28°
2026-05-05 20:52 39.53018 -74.31242 19207 ft 420 kts 28°
2026-05-05 20:52 39.55509 -74.29273 18600 ft 418 kts 29°
2026-05-05 20:52 39.57947 -74.27306 18046 ft 417 kts 32°
2026-05-05 20:52 39.60242 -74.25008 17540 ft 415 kts 37°
2026-05-05 20:53 39.62459 -74.22584 17117 ft 409 kts 38°
2026-05-05 20:53 39.64567 -74.20209 16705 ft 404 kts 38°
2026-05-05 20:53 39.66680 -74.17826 16312 ft 399 kts 38°
2026-05-05 20:53 39.68771 -74.15501 15972 ft 393 kts 37°
2026-05-05 20:54 39.70852 -74.13218 15632 ft 387 kts 37°
2026-05-05 20:54 39.72900 -74.10979 15292 ft 382 kts 37°
2026-05-05 20:54 39.74911 -74.08771 14960 ft 378 kts 37°
2026-05-05 20:54 39.76912 -74.06561 14629 ft 375 kts 37°
2026-05-05 20:55 39.78892 -74.04366 14294 ft 373 kts 37°
2026-05-05 20:55 39.80859 -74.02184 13968 ft 370 kts 36°
2026-05-05 20:55 39.82822 -74.00011 13646 ft 370 kts 36°
2026-05-05 20:55 39.84848 -73.98048 13325 ft 366 kts 27°
2026-05-05 20:56 39.87040 -73.96404 13099 ft 359 kts 24°
2026-05-05 20:56 39.89211 -73.94896 12954 ft 346 kts 22°
2026-05-05 20:56 39.91313 -73.93467 12818 ft 335 kts 22°
2026-05-05 20:56 39.93340 -73.92069 12683 ft 324 kts 22°
2026-05-05 20:57 39.95318 -73.90677 12326 ft 323 kts 23°
2026-05-05 20:57 39.97308 -73.89265 11807 ft 327 kts 23°
2026-05-05 20:57 39.99303 -73.87844 11428 ft 325 kts 23°
2026-05-05 20:57 40.01282 -73.86433 11115 ft 322 kts 23°
2026-05-05 20:58 40.03243 -73.85035 10989 ft 322 kts 23°
2026-05-05 20:58 40.05191 -73.83642 10982 ft 322 kts 23°
2026-05-05 20:58 40.07157 -73.82228 10989 ft 323 kts 23°
2026-05-05 20:58 40.09128 -73.80807 10994 ft 323 kts 23°
2026-05-05 20:59 40.11093 -73.79391 11000 ft 323 kts 23°
2026-05-05 20:59 40.13059 -73.77975 10999 ft 323 kts 23°
2026-05-05 20:59 40.15047 -73.76545 11001 ft 323 kts 23°
2026-05-05 20:59 40.16996 -73.75141 10977 ft 321 kts 23°
2026-05-05 21:00 40.18946 -73.73733 10717 ft 319 kts 23°
2026-05-05 21:00 40.20871 -73.72344 10278 ft 321 kts 23°
2026-05-05 21:00 40.22859 -73.70909 9853 ft 322 kts 23°
2026-05-05 21:00 40.24823 -73.69491 9480 ft 322 kts 23°
2026-05-05 21:01 40.26777 -73.68079 9115 ft 321 kts 23°
2026-05-05 21:01 40.28705 -73.66686 8774 ft 319 kts 23°
2026-05-05 21:01 40.30645 -73.65284 8420 ft 318 kts 23°
2026-05-05 21:01 40.32580 -73.63886 8065 ft 317 kts 23°
2026-05-05 21:02 40.34511 -73.62495 7700 ft 315 kts 23°
2026-05-05 21:02 40.36467 -73.61224 7341 ft 313 kts 19°
2026-05-05 21:02 40.38454 -73.60058 6979 ft 311 kts 17°
2026-05-05 21:02 40.40437 -73.58930 6620 ft 310 kts 17°
2026-05-05 21:03 40.42418 -73.57812 6269 ft 309 kts 17°
2026-05-05 21:03 40.44390 -73.56700 5922 ft 308 kts 17°
2026-05-05 21:03 40.46363 -73.55639 5569 ft 304 kts 12°
2026-05-05 21:03 40.48378 -73.54836 5223 ft 301 kts
2026-05-05 21:04 40.50372 -73.54141 4880 ft 299 kts
2026-05-05 21:04 40.52358 -73.53478 4542 ft 298 kts
2026-05-05 21:04 40.54422 -73.52809 4200 ft 296 kts
2026-05-05 21:04 40.56435 -73.52386 3894 ft 289 kts 359°
2026-05-05 21:05 40.58406 -73.52155 3765 ft 279 kts 358°
2026-05-05 21:05 40.60309 -73.51976 3662 ft 268 kts 357°
2026-05-05 21:05 40.62112 -73.51811 3565 ft 258 kts 357°
2026-05-05 21:05 40.63870 -73.51646 3463 ft 248 kts 357°
2026-05-05 21:06 40.65578 -73.51487 3240 ft 245 kts 357°
2026-05-05 21:06 40.67270 -73.51341 3009 ft 242 kts 357°
2026-05-05 21:06 40.68943 -73.51209 2991 ft 238 kts 357°
2026-05-05 21:06 40.70589 -73.51081 2992 ft 236 kts 356°
2026-05-05 21:07 40.72210 -73.51171 2981 ft 228 kts 338°
2026-05-05 21:07 40.73566 -73.52070 2954 ft 210 kts 309°
2026-05-05 21:07 40.74503 -73.53479 2722 ft 202 kts 299°
2026-05-05 21:07 40.75304 -73.55001 2366 ft 201 kts 289°
2026-05-05 21:08 40.75653 -73.56740 2040 ft 200 kts 270°
2026-05-05 21:08 40.75763 -73.58585 2022 ft 197 kts 267°
2026-05-05 21:08 40.75841 -73.60321 1990 ft 181 kts 266°
2026-05-05 21:08 40.75928 -73.61909 1975 ft 166 kts 267°
2026-05-05 21:09 40.76026 -73.63363 1968 ft 154 kts 267°
2026-05-05 21:09 40.76127 -73.64757 1972 ft 154 kts 267°
2026-05-05 21:09 40.76086 -73.66121 1946 ft 141 kts 239°
2026-05-05 21:09 40.75442 -73.66966 1965 ft 131 kts 206°
2026-05-05 21:10 40.74643 -73.67565 1964 ft 132 kts 205°
2026-05-05 21:10 40.73853 -73.68174 1967 ft 131 kts 206°
2026-05-05 21:10 40.73082 -73.68786 1928 ft 126 kts 208°
2026-05-05 21:10 40.72334 -73.69366 1793 ft 126 kts 212°
2026-05-05 21:11 40.71584 -73.69959 1632 ft 125 kts 212°
2026-05-05 21:11 40.70820 -73.70560 1472 ft 129 kts 213°
2026-05-05 21:11 40.70049 -73.71162 1292 ft 128 kts 212°
2026-05-05 21:11 40.69285 -73.71761 1121 ft 127 kts 213°
2026-05-05 21:12 40.68563 -73.72326 1030 ft 121 kts 212°
2026-05-05 21:12 40.67828 -73.72902 840 ft 122 kts 211°
2026-05-05 21:12 40.67098 -73.73473 654 ft 122 kts 209°
2026-05-05 21:12 40.66368 -73.74045 480 ft 121 kts 208°
2026-05-05 21:13 40.65647 -73.74609 315 ft 121 kts 206°
2026-05-05 21:13 40.64902 -73.75190 146 ft 122 kts 205°
2026-05-05 21:13 40.64191 -73.75751 31 ft 118 kts 208°
2026-05-05 21:13 40.63668 -73.76151 27 ft 46 kts 208°
2026-05-05 21:14 40.63543 -73.76261 27 ft 9 kts 214°
2026-05-05 21:14 40.63522 -73.76286 27 ft 2 kts 261°
2026-05-05 21:14 40.63535 -73.76306 27 ft 4 kts 337°
2026-05-05 21:14 40.63568 -73.76313 27 ft 6 kts 358°
2026-05-05 21:15 40.63616 -73.76313 27 ft 8 kts
2026-05-05 21:15 40.63678 -73.76311 27 ft 10 kts
2026-05-05 21:15 40.63758 -73.76307 27 ft 13 kts
2026-05-05 21:15 40.63854 -73.76308 27 ft 15 kts 358°
2026-05-05 21:16 40.63968 -73.76302 27 ft 18 kts
2026-05-05 21:16 40.64084 -73.76316 27 ft 11 kts 341°
2026-05-05 21:16 40.64148 -73.76387 27 ft 14 kts 307°
2026-05-05 21:16 40.64204 -73.76503 27 ft 16 kts 302°
2026-05-05 21:17 40.64269 -73.76642 27 ft 19 kts 301°
2026-05-05 21:17 40.64343 -73.76804 27 ft 22 kts 299°
2026-05-05 21:17 40.64398 -73.76938 27 ft 12 kts 291°
2026-05-05 21:17 40.64429 -73.77044 27 ft 12 kts 275°
2026-05-05 21:18 40.64441 -73.77151 27 ft 12 kts 285°
2026-05-05 21:18 40.64466 -73.77228 27 ft 9 kts 303°
2026-05-05 21:18 40.64486 -73.77302 27 ft 8 kts 273°
2026-05-05 21:18 40.64486 -73.77377 27 ft 7 kts 252°
2026-05-05 21:19 40.64486 -73.77428 27 ft 6 kts 307°
2026-05-05 21:19 40.64513 -73.77470 27 ft 6 kts 310°
2026-05-05 21:19 40.64523 -73.77485 27 ft 0 kts 310°